Regional Weather Roundup
Issued by NWS

Home | Current Version | Previous Version | Text Only | Print | Product List | Glossary Off
Versions: 1 2 3 4 5 6 7 8 9 10 11 12 13 14 15 16 17 18 19 20 21 22 23 24 25 26 27 28 29 30 31 32 33 34 35 36 37 38 39 40 41 42 43 44 45 46 47 48 49 50

000
ASUS43 KLSX 181807
RWRMO

WEATHER SUMMARY FOR MISSOURI
NATIONAL WEATHER SERVICE SPRINGFIELD MO
1200 PM CST SUN FEB 18 2018

NOTE: "FAIR" INDICATES FEW OR NO CLOUDS BELOW 12,000 FEET WITH NO
       SIGNIFICANT WEATHER AND/OR OBSTRUCTIONS TO VISIBILITY.
       CURRENT SKY AND/OR WEATHER CONDITIONS ARE NOT AVAILABLE FOR
       CHILLICOTHE AND FARMINGTON.

MOZ001>031-035>038-043-044-053-054-181900-
...NORTHERN AND WESTERN MISSOURI...

CITY           SKY/WX    TMP DP  RH WIND       PRES   REMARKS
KANSAS CTY INT CLOUDY    53  24  32 S30G37    29.93F
6HR MIN TEMP:  37; 6HR MAX TEMP:  54;

KANSAS C DTWN  CLOUDY    52  26  36 S23G36    29.97F
6HR MIN TEMP:  42; 6HR MAX TEMP:  52;

LEE`S SUMMIT     N/A     50  30  46 S21G35    29.97F
6HR MIN TEMP:  35; 6HR MAX TEMP:  50;

ST JOSEPH      CLOUDY    52  25  35 S28G39    29.89F
6HR MIN TEMP:  35; 6HR MAX TEMP:  52;

CHILLICOTHE      N/A     50  28  42 S18G30    29.97F
6HR MIN TEMP:  32; 6HR MAX TEMP:  50;

KIRKSVILLE     CLOUDY    48  26  42 S21G31    30.00F
6HR MIN TEMP:  30; 6HR MAX TEMP:  48;


$$
MOZ066>068-077>081-088>096-101>105-181900-
...SOUTHWEST MISSOURI...

CITY           SKY/WX    TMP DP  RH WIND       PRES   REMARKS
SPRINGFIELD    CLOUDY    47  34  60 S26G35    30.06F
6HR MIN TEMP:  33; 6HR MAX TEMP:  48;

JOPLIN         MOSUNNY   52  30  43 S14       30.03F
6HR MIN TEMP:  33; 6HR MAX TEMP:  52;

BRANSON        CLOUDY    48  32  53 SE14G24   30.13F

$$
MOZ032>034-039>042-045>050-055>058-069>072-181900-
...CENTRAL MISSOURI...

CITY           SKY/WX    TMP DP  RH WIND       PRES   REMARKS
COLUMBIA       MOSUNNY   51  31  46 S22G30    30.08F
6HR MIN TEMP:  29; 6HR MAX TEMP:  51;

JEFFERSON CITY MOSUNNY   50  29  44 SE17G29   30.10F
6HR MIN TEMP:  24; 6HR MAX TEMP:  50;

ROLLA          CLOUDY    48  30  49 SE17      30.11F
6HR MIN TEMP:  33; 6HR MAX TEMP:  49;

SEDALIA        PTSUNNY   54  31  41 S22G30    30.04F
6HR MIN TEMP:  32; 6HR MAX TEMP:  55;

WHITEMAN AFB   MOSUNNY   52  29  41 S23G30    29.98F
WARRENSBURG    CLOUDY    52  30  43 SE18G26   30.01F
OSAGE BEACH    MOSUNNY   51  34  52 S16       30.09F

$$
MOZ051-052-059>065-181900-
...EAST CENTRAL MISSOURI...

CITY           SKY/WX    TMP DP  RH WIND       PRES   REMARKS
ST LOUIS INTL  PTSUNNY   48  29  47 SE20G26   30.17F
6HR MIN TEMP:  33; 6HR MAX TEMP:  49;

SPIRIT OF STL  MOSUNNY   49  28  44 SE9G21    30.16F
6HR MIN TEMP:  22; 6HR MAX TEMP:  50;

ST CHARLES     MOSUNNY   49  30  48 S21       30.17F
6HR MIN TEMP:  23; 6HR MAX TEMP:  50;


$$
MOZ072>076-082>087-097>100-106>115-181900-
...SOUTH CENTRAL AND SOUTHEAST MISSOURI...

CITY           SKY/WX    TMP DP  RH WIND       PRES   REMARKS
CAPE GIRARDEAU FAIR      48  36  63 SE10      30.24F
6HR MIN TEMP:  28; 6HR MAX TEMP:  48;

FARMINGTON     CLOUDY    49  33  54 SE16      30.18F
6HR MIN TEMP:  22; 6HR MAX TEMP:  49;

POPLAR BLUFF   FAIR      47  38  71 SE10      30.23F
6HR MIN TEMP:  27; 6HR MAX TEMP:  48;

WEST PLAINS    MOSUNNY   45  35  68 S12       30.16F
6HR MIN TEMP:  26; 6HR MAX TEMP:  45;


$$



USA.gov is the U.S. government's official web portal to all federal, state and local government web resources and services.